Location: Unspecified
(0.0000°N, 0.0000°E)
Time: 23:48:07
(UTC+02:00)

BREEZE-M DEB (TANK) - Visible Passes

Search period start: 22 April 2018 00:00
Search period end: 02 May 2018 00:00
Orbit: 331 x 16304 km, 49.5° (Epoch: 22 April)

Date Brightness Start Highest point End Pass type
(mag) Time Alt. Az. Time Alt. Az. Time Alt. Az.
22 Apr 7.2 00:51:33 10° NNW 03:03:17 58° NE 03:20:13 10° ESE visible
22 Apr 8.8 18:46:15 10° W 19:12:24 39° NW 21:58:53 10° NE visible
23 Apr 6.6 01:54:13 10° NNW 03:46:08 75° NE 03:59:44 10° SE visible
23 Apr 8.7 19:29:07 10° W 20:05:09 32° NNW 23:01:47 10° NE visible
24 Apr 6.2 02:54:15 10° NW 04:35:27 31° SSE 04:38:36 10° SSE visible
24 Apr 8.3 20:14:59 10° WNW 21:17:51 26° NNW 23:54:57 10° ENE visible
25 Apr 6.1 03:53:41 10° NW 05:14:47 23° S 05:16:52 10° SSE visible
25 Apr 8.1 21:06:05 10° NW 00:01:25 31° NNE 00:37:57 16° ENE visible
26 Apr 6.2 04:53:54 10° NW 05:53:38 14° S 05:54:28 10° S visible
26 Apr 7.8 22:04:56 10° NW 00:55:46 39° NE 01:14:04 31° ENE visible
27 Apr 6.4 05:55:46 10° WNW 06:32:13 - SSW 06:09:16 16° WNW visible
27 Apr 7.5 23:09:12 10° NW 01:44:06 49° NE 01:50:24 47° ENE visible
28 Apr 8.1 17:31:44 10° WSW 17:51:14 46° NW 20:13:56 10° NE visible
29 Apr 7.4 00:12:31 10° NNW 02:26:54 62° NE 02:26:54 62° NE visible
29 Apr 8.7 18:13:08 10° W 18:39:09 36° NNW 21:27:00 10° NE visible
30 Apr 7.4 01:13:15 10° NNW 03:03:33 66° NNW 03:03:33 66° NNW visible
30 Apr 8.6 18:56:26 10° WNW 19:33:36 29° NNW 22:30:35 10° ENE visible
01 May 7.5 02:12:55 10° NW 03:40:19 55° NW 03:40:19 55° NW visible
01 May 8.3 19:42:56 10° WNW 22:21:37 27° NNE 23:21:47 11° ENE visible
